Regional Weather Roundup
Issued by NWS Sioux Falls, SD

Home | Current Version | Previous Version | Text Only | Print | Product List | Glossary On
Versions: 1 2 3 4 5 6 7 8 9 10 11 12 13 14 15 16 17 18 19 20 21 22 23 24 25 26 27 28 29 30 31 32 33 34 35 36 37 38 39 40 41 42 43 44 45 46 47 48 49 50
000
ASUS43 KFSD 030810
RWRFSD

WEATHER ROUNDUP FOR SE SOUTH DAKOTA/SW MINNESOTA/NW IOWA
NATIONAL WEATHER SERVICE SIOUX FALLS SD
300 AM CDT FRI JUL 03 2015

NOTE: "FAIR" INDICATES FEW OR NO CLOUDS BELOW 12,000 FEET WITH NO
SIGNIFICANT WEATHER AND OR OBSTRUCTIONS TO VISIBILITY.


SDZ038>040-050-052>070-030900-
SOUTHEAST SOUTH DAKOTA

CITY           SKY/WX    TMP DP  RH WIND       PRES   REMARKS
BROOKINGS      CLEAR     55  50  82 CALM      30.03S
CHAMBERLAIN    FOG       61  61 100 CALM      30.00S VSB 1/4
HURON          CLEAR     59  57  93 S3        29.99S
MADISON        FAIR      55  55 100 CALM      30.02S
MITCHELL       CLEAR     58  57  97 SE3       30.01S FOG
SIOUX FALLS    FOG       57  56  96 CALM      30.01F VSB 1/4
WINNER         FAIR      64  60  87 S6        30.02S FOG
YANKTON        CLOUDY    61  57  88 E5        30.00F
$$

MNZ071-072-080-081-089-090-097-098-030900-
SOUTHWEST MINNESOTA

CITY           SKY/WX    TMP DP  RH WIND       PRES   REMARKS
FAIRMONT       CLEAR     55  46  71 CALM      30.01S
JACKSON        CLEAR     54  50  87 CALM      30.03S
LUVERNE        CLEAR     54  50  87 CALM      30.03R
MARSHALL       CLEAR     54  48  82 SW6       29.99S
MONTEVIDEO     CLEAR     57  52  82 W6        29.99R
PIPESTONE      CLEAR     54  50  87 CALM      30.02S
REDWOOD FALLS  CLEAR     56  50  80 SW7       29.99S
TRACY          CLEAR     56  53  88 SW6       30.01S
WINDOM         CLEAR     52  52 100 CALM      30.02S
WORTHINGTON    CLEAR     52  46  82 S5        30.02F
$$

IAZ001>003-012>014-020>022-031-032-NEZ013-014-SDZ071-030900-
NORTHWEST IOWA

CITY           SKY/WX    TMP DP  RH WIND       PRES   REMARKS
CHEROKEE         N/A     54  54 100 CALM      30.02S FOG
DENISON        CLOUDY    55  55 100 CALM      29.98F
ESTHERVILLE    CLEAR     50  48  93 SW5       30.01F
LE MARS        MOCLDY    54  54 100 CALM      30.02F FOG
ORANGE CITY    CLEAR     55  54  94 E3        30.02F FOG
SHELDON        CLOUDY    50  50 100 CALM      30.01S
SIOUX CITY     FOG       57  55  93 CALM      30.01S VSB 1
SPENCER        FOG       48  45  89 CALM      30.02F VSB 1/2
STORM LAKE     CLEAR     55  52  88 N3        30.03S
$$

ABBREVIATIONS USED IN REMARKS
   TC - TEMPERATURE IN CELSIUS
  WCI - WIND CHILL INDEX
   HX - HEAT INDEX
  VSB - VISIBILITY




USA.gov is the U.S. government's official web portal to all federal, state and local government web resources and services.